This is the latest recevied weather packets stored in our database for station/object KK7ISX. If no packets are shown the sender has not sent any weather packets the latest 10 day(s).
| Time | Temp. | Humidity | Pressure | Rain* | Wind** | Luminosity | Snow |
|---|---|---|---|---|---|---|---|
| 1777951956 | 22.78° C | 36% | 1003.7 hPa | 0 mm | - | 0 W/m² | - |
| 1777951654 | 22.78° C | 37% | 1003.8 hPa | 0 mm | - | 0 W/m² | - |
| 1777951350 | 23.33° C | 36% | 1003.7 hPa | 0 mm | - | 0 W/m² | - |
| 1777951047 | 23.33° C | 36% | 1003.5 hPa | 0 mm | - | 0 W/m² | - |
| 1777950743 | 23.33° C | 36% | 1003.7 hPa | 0 mm | - | 0 W/m² | - |
| 1777950441 | 23.89° C | 36% | 1003.4 hPa | 0 mm | - | 0 W/m² | - |
| 1777950137 | 23.89° C | 35% | 1003.5 hPa | 0 mm | - | 1 W/m² | - |
| 1777949833 | 23.89° C | 35% | 1003.4 hPa | 0 mm | - | 2 W/m² | - |
| 1777949531 | 24.44° C | 35% | 1003.4 hPa | 0 mm | - | 3 W/m² | - |
| 1777949229 | 24.44° C | 34% | 1003.3 hPa | 0 mm | - | 5 W/m² | - |
| 1777948925 | 25° C | 35% | 1003.4 hPa | 0 mm | - | 9 W/m² | - |
| 1777948623 | 25° C | 34% | 1003.2 hPa | 0 mm | - | 13 W/m² | - |
| 1777948315 | 25° C | 34% | 1003.1 hPa | 0 mm | - | 19 W/m² | - |
| 1777948012 | 25.56° C | 33% | 1003.1 hPa | 0 mm | - | 25 W/m² | - |
| 1777947709 | 25.56° C | 33% | 1003 hPa | 0 mm | - | 29 W/m² | - |
| 1777947406 | 25.56° C | 33% | 1003.1 hPa | 0 mm | - | 29 W/m² | - |
| 1777947102 | 25.56° C | 32% | 1003.1 hPa | 0 mm | - | 35 W/m² | - |
| 1777946798 | 26.11° C | 32% | 1003 hPa | 0 mm | - | 37 W/m² | - |
| 1777946494 | 26.11° C | 32% | 1003.2 hPa | 0 mm | - | 43 W/m² | - |
| 1777946192 | 26.11° C | 31% | 1003.1 hPa | 0 mm | - | 50 W/m² | - |
| 1777945888 | 26.11° C | 31% | 1003.2 hPa | 0 mm | - | 63 W/m² | - |
| 1777945585 | 26.11° C | 31% | 1003.3 hPa | 0 mm | - | 73 W/m² | - |
| 1777945282 | 26.11° C | 31% | 1003.3 hPa | 0 mm | - | 76 W/m² | - |
| 1777944980 | 26.11° C | 31% | 1003.3 hPa | 0 mm | - | 74 W/m² | - |
| 1777944676 | 26.67° C | 30% | 1003.3 hPa | 0 mm | - | 78 W/m² | - |
* Rain latest hour (hover to see other rain measurements)
** Current wind speed in m/s (hover to see current wind gust speed)